Current Version              Previous Version:    01  02  03  04  05  06  07  08  09  10  11  12  13  14  15  16  17  18  19  20  21  22  23  24  25  26  27  28  29  30  
   31  32  33  34  35  36  37  38  39  40  41  42  43  44  45  46  47  48  49  50  51  52  53  54  55  56  57  58  59  60  

[Printable]
402
ASUS44 KFWD 302001
RWRTX
NORTH TEXAS HOURLY WEATHER ROUNDUP
NATIONAL WEATHER SERVICE FORT WORTH TX
300 PM CDT SAT AUG 30 2014

NOTE: "FAIR" INDICATES FEW OR NO CLOUDS BELOW 12,000 FEET WITH NO
SIGNIFICANT WEATHER AND/OR OBSTRUCTIONS TO VISIBILITY.

TXZ118-119-302100-
DALLAS/FORT WORTH METROPLEX

CITY           SKY/WX    TMP DP  RH WIND       PRES   REMARKS
DFW AIRPORT    MOSUNNY   92  71  50 VRB6      29.91F HX  98
DALLAS LOVE    MOSUNNY   91  70  49 VRB5      29.91F HX  96
FTW MEACHAM    PTSUNNY   92  68  45 E8        29.91F HX  96
DAL-EXECUTIVE  MOSUNNY   93  68  43 VRB5      29.92F HX  97
FTW-ALLIANCE   PTSUNNY   92  68  45 NE7       29.91F HX  96
FTW-NAS-JRB    MOSUNNY   95  65  37 NE9       29.95F HX  97
FTW-SPINKS     MOSUNNY   91  70  49 SE6       29.93F HX  97
ARLINGTON      SUNNY     91  66  43 NE5       29.92F HX  93
GRAND PRAIRIE  SUNNY     91  66  43 NE6       29.93F HX  94
MESQUITE       PTSUNNY   90  66  45 SE3       29.92F HX  92
LANCASTER      SUNNY     90  67  47 E3        29.93F HX  93
$$

TXZ091>094-102>105-117-120-121-131>134-302100-
NORTH CENTRAL TEXAS

CITY           SKY/WX    TMP DP  RH WIND       PRES   REMARKS
SHRMAN/DENISON LGT RAIN  87  70  57 E6        29.94S HX  91
GAINESVILLE    PTSUNNY   88  68  51 E3        29.94F HX  92
BRIDGEPORT     SUNNY     93  60  33 E3        29.94F HX  92
DECATUR        SUNNY     91  64  41 SE3       29.93F HX  92
DENTON         MOSUNNY   91  70  49 SE3       29.91F HX  96
MCKINNEY       MOSUNNY   90  70  51 S8        29.92F HX  95
GREENVILLE     MOSUNNY   90  64  43 CALM      29.93F HX  91
ROCKWALL       PTSUNNY   87  71  58 CALM      29.92F HX  93
TERRELL        MOSUNNY   91  68  46 VRB5      29.93F HX  95
WAXAHACHIE     MOSUNNY   91  65  42 SE6       29.93F HX  93
CLEBURNE       SUNNY     93  70  46 VRB6G13   29.93F HX  99
$$

TXZ083>090-098>101-113>116-127>130-139>142-154-155-302100-
WESTERN NORTH TEXAS

CITY           SKY/WX    TMP DP  RH WIND       PRES   REMARKS
WICHITA FALLS  SUNNY     94  60  32 VRB3      29.91F HX  94
WF-KICKAPOO    SUNNY     97  57  26 S3        29.93F HX  95
VERNON         SUNNY     94  59  30 N5        29.93F HX  94
ABILENE        MOSUNNY   96  60  30 NW5       29.96F HX  96
ABILENE-DYESS  SUNNY     93  63  36 NE10      29.95F HX  94
MINERAL WELLS  SUNNY     92  64  39 VRB3      29.91F HX  93
STEPHENVILLE   MOSUNNY   92  65  40 NE3       29.97S HX  93
COMANCHE         N/A     94  63  36 NE3       29.94F HX  95
BROWNWOOD      PTSUNNY   90  68  48 SE10      29.94S HX  93
COLEMAN        SUNNY     93  59  31 E5        29.95F HX  92
BRADY          MOSUNNY   90  66  45 NE9       29.95F HX  92
$$

TXZ143>147-156>162-174-175-302100-
CENTRAL TEXAS

CITY           SKY/WX    TMP DP  RH WIND       PRES   REMARKS
WACO           SUNNY     92  67  43 E6        29.91F HX  95
WACO-MCGREGOR  SUNNY     93  68  43 E9        29.92F HX  97
HILLSBORO      MOSUNNY   91  66  43 NE8       29.92F HX  94
CORSICANA      PTSUNNY   89  67  47 CALM      29.93F HX  92
MEXIA          PTSUNNY   86  71  59 NE3       29.93F HX  91
HEARNE           N/A     89  71  55 NE8       29.93F HX  95
CAMERON        MOSUNNY   89  70  51 CALM      29.92F HX  94
TEMPLE         PTSUNNY   93  66  40 E5        29.92F HX  96
KILLEEN        PTSUNNY   91  66  43 E7        29.92F HX  94
KILLEEN-SKYLRK MOSUNNY   91  66  43 E12       29.91F HX  94
FORT HOOD      MOSUNNY   97  67  37 VRB7      29.92F HX 101
LAMPASAS       MOSUNNY   93  68  44 E6        29.92F HX  98
$$

TXZ095>097-106>112-122>126-135>138-148>153-164>167-302100-
EAST TEXAS

CITY           SKY/WX    TMP DP  RH WIND       PRES   REMARKS
PARIS          MOSUNNY   88  66  48 E5        29.94F HX  90
SULPHUR SPRNGS MOSUNNY   88  68  51 E5        29.95F HX  91
MOUNT PLEASANT MOSUNNY   87  69  53 N3        29.93F HX  91
MINEOLA        MOSUNNY   90  70  51 CALM      29.93F HX  95
TYLER          MOSUNNY   90  69  50 NE3       29.92F HX  94
LONGVIEW       PTSUNNY   86  70  58 E7        29.92F HX  90
MARSHALL       MOSUNNY   89  72  57 CALM      29.94S HX  95
ATHENS         PTSUNNY   86  68  54 NE3       29.92F
PALESTINE      CLOUDY    86  71  60 S3        29.94F HX  92
JACKSONVILLE   PTSUNNY   86  69  56 CALM      29.96S HX  91
HENDERSON      CLOUDY    89  69  52 E6        29.93F HX  93
NACOGDOCHES    CLOUDY    84  72  65 CALM      29.93S
LUFKIN         CLOUDY    85  74  69 SE7       29.93F HX  92
$$

SUPPLEMENTAL OBSERVATIONS (CENTRAL)

CITY           SKY/WX    TMP DP  RH WIND       PRES   REMARKS
$$

SUPPLEMENTAL OBSERVATIONS (WEST)

CITY           SKY/WX    TMP DP  RH WIND       PRES   REMARKS
$$

SUPPLEMENTAL OBSERVATIONS (EAST)

CITY           SKY/WX    TMP DP  RH WIND       PRES   REMARKS
$$

SUPPLEMENTAL OBSERVATIONS ARE A COLLECTION OF AUTOMATED INSTRUMENTS
THAT ARE MAINTAINED BY A VARIETY OF FEDERAL AND STATE AGENCIES.
CERTAIN ELEMENTS...SUCH AS HUMIDITY VALUES AND SUSTAINED WIND
SPEEDS...MAY BE APPROXIMATED.